Location: Winthrop
(48.4780°N, 120.1850°W)
Time: 16:23:47
(UTC-07:00)

Vanguard 3 - Pass Details

Date: 08 February 2023
Orbit: 508 x 3249 km, 33.3° (Epoch: 22 March)

Event Time Altitude Azimuth Distance (km) Brightness Sun altitude
Rises 22:01:03 0° 264° (W) 4,864 11.6 -46.5°
Reaches altitude 10° 22:04:23 10° 253° (WSW) 4,243 11.0 -46.9°
Enters shadow 22:10:21 26° 224° (SW) 3,696 10.3 -47.7°
